This is the latest recevied weather packets stored in our database for station/object DG7YEO-13. If no packets are shown the sender has not sent any weather packets the latest 10 day(s).
| Time | Temp. | Humidity | Pressure | Rain* | Wind** | Luminosity | Snow |
|---|---|---|---|---|---|---|---|
| 1787454125 | 12.78° C | 90% | 1021.6 hPa | 0 mm | - | - | - |
| 1787453225 | 12.22° C | 90% | 1021.5 hPa | 0 mm | - | - | - |
| 1787452324 | 12.22° C | 89% | 1021.6 hPa | 0 mm | - | - | - |
| 1787451425 | 12.22° C | 89% | 1021.6 hPa | 0 mm | - | - | - |
| 1787450525 | 12.22° C | 88% | 1021.7 hPa | 0 mm | - | - | - |
| 1787449625 | 12.78° C | 88% | 1021.5 hPa | 0 mm | - | - | - |
| 1787448725 | 12.78° C | 87% | 1021.5 hPa | 0 mm | - | - | - |
| 1787447825 | 12.78° C | 87% | 1021.5 hPa | 0 mm | - | - | - |
| 1787446925 | 12.78° C | 87% | 1021.4 hPa | 0 mm | - | - | - |
| 1787446025 | 12.78° C | 87% | 1021.4 hPa | 0 mm | - | - | - |
| 1787445125 | 13.33° C | 87% | 1021.4 hPa | 0 mm | - | - | - |
| 1787444225 | 12.78° C | 87% | 1021.4 hPa | 0 mm | - | - | - |
| 1787443325 | 12.78° C | 86% | 1021.4 hPa | 0 mm | - | - | - |
| 1787442425 | 12.78° C | 86% | 1021.5 hPa | 0 mm | - | - | - |
| 1787441525 | 13.33° C | 85% | 1021.6 hPa | 0 mm | - | - | - |
| 1787440625 | 13.33° C | 85% | 1021.5 hPa | 0 mm | - | - | - |
| 1787439725 | 13.33° C | 84% | 1021.6 hPa | 0 mm | - | - | - |
| 1787438825 | 13.33° C | 83% | 1021.6 hPa | 0 mm | - | - | - |
| 1787437925 | 13.89° C | 82% | 1021.5 hPa | 0 mm | - | - | - |
| 1787437025 | 13.89° C | 81% | 1021.5 hPa | 0 mm | - | - | - |
| 1787436126 | 14.44° C | 81% | 1021.2 hPa | 0 mm | - | - | - |
| 1787435225 | 14.44° C | 80% | 1021.3 hPa | 0 mm | - | - | - |
| 1787434325 | 14.44° C | 80% | 1021.2 hPa | 0 mm | - | - | - |
| 1787433424 | 14.44° C | 79% | 1021.2 hPa | 0 mm | - | - | - |
| 1787432525 | 15° C | 77% | 1021.1 hPa | 0 mm | - | - | - |
* Rain latest hour (hover to see other rain measurements)
** Current wind speed in m/s (hover to see current wind gust speed)